Wind from 230 at 8 knots

Air temperature 7.0° C
Dewpoint -5.0° C

Last reported at 2014-Apr-16 17:20 UTC.
Time now 2014-Apr-16 19:30 UTC

Location: N 60°15' E 025°03'.
View on Google Maps.

See reports from other nearby stations

Tides Stations Pressure Air Temp Water Temp Dewpoint Dewpoint depression Visibility Wind Speed Wind Dir Waves Ship positions

  
sailing weather and tide predictions

HELSINKI-MALMI weather

date/time (UTC)wind fromknots sea level pressurealtimeterstation pressurevisibilityair tempwater tempwave heightnotes
2014-Apr-16 18:20 240 7 6.0
2014-Apr-16 17:50 240 9 6.0
2014-Apr-16 17:20 230 8 7.0
2014-Apr-16 16:50 220 7 7.0
2014-Apr-16 16:20 210 8 7.0
2014-Apr-16 15:50 200 8 8.0
2014-Apr-16 15:20 210 10 8.0
2014-Apr-16 14:50 210 10 9.0
2014-Apr-16 14:20 220 8 9.0
2014-Apr-16 13:50 270 7 10.0
2014-Apr-16 13:20 290 8 9.0
2014-Apr-16 12:50 250 8 9.0
2014-Apr-16 12:20 280 8 9.0
2014-Apr-16 11:50 280 7 9.0
2014-Apr-16 11:20 310 6 9.0
2014-Apr-16 10:50 300 7 8.0
2014-Apr-16 10:20 300 9 8.0
2014-Apr-16 09:50 290 9 8.0
2014-Apr-16 09:20 300 8 7.0
2014-Apr-16 08:50 340 10 7.0
2014-Apr-16 08:20 340 12 7.0
2014-Apr-16 07:50 320 9 6.0
2014-Apr-16 07:20 330 8 6.0
2014-Apr-16 06:50 330 8 5.0
2014-Apr-16 06:20 320 7 4.0
2014-Apr-16 05:50 320 7 3.0
2014-Apr-16 05:20 330 6 2.0
2014-Apr-16 04:50 330 5 1.0
2014-Apr-16 04:20 330 2 5.4-1.0 Light rain.
2014-Apr-16 03:50 320 2 -2.0
2014-Apr-16 03:20 310 3 -2.0
2014-Apr-16 02:50 300 2 -3.0
2014-Apr-16 02:20 320 2 -1.0
2014-Apr-16 01:50 310 3 -2.0
2014-Apr-16 01:20 330 3 -1.0
2014-Apr-16 00:50 330 4 -0.0
2014-Apr-16 00:20 320 5 -0.0
2014-Apr-15 23:50 330 6 -0.0
2014-Apr-15 23:20 330 6 -0.0
2014-Apr-15 22:50 330 6 -0.0
2014-Apr-15 22:20 340 5 1.0
2014-Apr-15 21:50 340 7 2.0
2014-Apr-15 21:20 330 7 3.0
2014-Apr-15 20:50 320 4 2.0
2014-Apr-15 20:20 320 4 2.0
2014-Apr-15 19:50 320 6 3.0
2014-Apr-15 19:20 330 6 3.0
2014-Apr-15 18:50 340 7 3.0
2014-Apr-15 18:20 330 8 4.0
2014-Apr-15 17:50 330 10 5.4 5.0
2014-Apr-15 17:20 340 9 5.4 5.0
2014-Apr-15 16:50 340 16 5.4 6.0
2014-Apr-15 16:20 320 5 5.4 6.0
2014-Apr-15 15:50 350 10 5.4 5.0 Light rain showers.
2014-Apr-15 15:20 350 15 5.4 7.0 Light rain showers.
2014-Apr-15 14:50 330 9 5.4 9.0 Showers in the vicinity.
2014-Apr-15 14:20 360 7 5.4 9.0 Showers in the vicinity.
2014-Apr-15 13:50 350 10 5.410.0
2014-Apr-15 13:20 360 6 5.4 9.0 Showers in the vicinity.
2014-Apr-15 12:50 360 7 5.4 9.0 Showers in the vicinity.
2014-Apr-15 12:20 360 9 5.4 9.0 Light rain.
2014-Apr-15 11:50 360 8 5.4 9.0
2014-Apr-15 11:20 340 9 5.4 9.0
2014-Apr-15 10:50 340 11 5.4 9.0
2014-Apr-15 10:20 340 10 5.4 8.0
2014-Apr-15 09:50 350 9 5.4 8.0
2014-Apr-15 09:20 350 10 5.4 6.0
2014-Apr-15 08:50 340 10 5.4 7.0
2014-Apr-15 08:20 360 8 5.4 6.0
2014-Apr-15 07:50 340 9 5.4 6.0
2014-Apr-15 07:20 350 9 5.4 6.0
2014-Apr-15 06:50 350 8 5.4 4.0
2014-Apr-15 06:20 340 8 5.4 4.0 Showers in the vicinity.
2014-Apr-15 05:50 330 6 5.4 4.0 Showers in the vicinity.
2014-Apr-15 05:20 320 6 5.4 3.0
2014-Apr-15 04:50 320 4 2.0
2014-Apr-15 04:20 310 3 1.0
2014-Apr-15 03:50 290 2 -0.0
2014-Apr-15 03:20 290 2 -0.0
2014-Apr-15 02:50 280 1 1.0
2014-Apr-15 02:20 290 2 1.0
2014-Apr-15 01:50 270 1 1.0
2014-Apr-15 01:20 310 1 5.4 1.0
2014-Apr-15 00:50 270 1 0.8 1.0 Mist.
2014-Apr-15 00:20 4.3-0.0 Mist.
2014-Apr-14 23:50 1.0
2014-Apr-14 23:20 1.0
2014-Apr-14 22:50 2.0
2014-Apr-14 22:20 2.0
2014-Apr-14 21:50 2.0
2014-Apr-14 21:20 230 1 4.0
2014-Apr-14 20:50 210 2 4.0
2014-Apr-14 20:20 210 1 4.0
2014-Apr-14 19:50 230 1 4.0
2014-Apr-14 19:20 220 2 4.0